Weather History for Shirley, NY

Change the Weather History Date:

Saturday, February 16, 2013

  Actual Average (KISP) Record (KISP)
Temperature  
Mean Temperature 34 °F 33 °F  
Max Temperature 39 °F 40 °F 56 °F (1992)
Min Temperature 30 °F 25 °F 8 °F (1987)
Degree Days  
Heating Degree Days 30 32  
Month to date heating degree days 531  
Since 1 July heating degree days 3523  
Cooling Degree Days 0 0  
Month to date cooling degree days 0  
Year to date cooling degree days 0  
Moisture  
Dew Point 27 °F    
Average Humidity 74    
Maximum Humidity 89    
Minimum Humidity 54    
Precipitation  
Precipitation 0.00 in 0.12 in 1.44 in (1993)
Month to date precipitation 1.75  
Year to date precipitation 5.39  
Snow  
Snow 0.00 in 0.30 in 4.00 in (1996)
Month to date snowfall 3.9  
Since 1 July snowfall 16.5  
Snow Depth -    
Sea Level Pressure  
Sea Level Pressure 29.88 in    
Wind  
Wind Speed 9 mph (North)    
Max Wind Speed 16 mph    
Max Gust Speed 22 mph    
Visibility 8 miles    
Events Snow    
T = Trace of Precipitation, MM = Missing Value Source: NWS Daily Summary

Daily Weather History Graph

Daily Weather History Graph

Search for Another Location

Airport:

Trip Planner

Search our weather history database for the weather conditions in past years. The results will help you decide how hot, cold, wet, or windy it might be!

Date:

Astronomy

Feb. 16, 2013 Rise Set
Actual Time 6:43 AM EST 5:27 PM EST
Civil Twilight 6:15 AM EST 5:55 PM EST
Nautical Twilight 5:43 AM EST 6:27 PM EST
Astronomical Twilight 5:12 AM EST 6:59 PM EST
Moon 9:52 AM EST (2/16) No Moon Set
Length of Visible Light 11h 39m
Length of Day
10h 43m
Waxing Crescent, 39% of the Moon is Illuminated
Feb 16
Waxing Crescent
Feb 17
First Quarter
Feb 25
Full
Mar 4
Last Quarter
Mar 11
New

Hourly Weather History & Observations

Time (EST) Temp. Windchill Dew Point Humidity Pressure Visibility Wind Dir Wind Speed Gust Speed Precip Events Conditions
12:56 AM 39.0 °F 35.7 °F 36.0 °F 89% 29.94 in 8.0 mi NW 4.6 mph - N/A   Overcast
1:56 AM 39.9 °F 35.8 °F 34.0 °F 79% 29.94 in 10.0 mi NNW 5.8 mph - N/A   Overcast
2:56 AM 39.0 °F 33.4 °F 30.0 °F 70% 29.93 in 10.0 mi NNW 8.1 mph - N/A   Overcast
3:56 AM 37.9 °F 30.5 °F 30.9 °F 76% 29.93 in 10.0 mi NNW 11.5 mph - N/A   Overcast
4:56 AM 36.0 °F 29.6 °F 30.0 °F 79% 29.92 in 10.0 mi North 8.1 mph 18.4 mph 0.00 in   Overcast
5:29 AM 35.6 °F 27.5 °F 30.2 °F 81% 29.92 in 10.0 mi North 11.5 mph - N/A   Overcast
6:48 AM 33.8 °F 25.8 °F 30.2 °F 87% 29.94 in 8.0 mi North 10.4 mph - 0.00 in Snow Light Snow
6:56 AM 34.0 °F 25.5 °F 30.9 °F 89% 29.94 in 9.0 mi North 11.5 mph - 0.00 in Snow Light Snow
7:39 AM 35.6 °F 26.2 °F 30.2 °F 81% 29.94 in 10.0 mi North 15.0 mph 21.9 mph N/A   Overcast
7:56 AM 35.1 °F 27.9 °F 30.0 °F 82% 29.95 in 10.0 mi North 9.2 mph - N/A   Overcast
8:10 AM 35.6 °F 26.6 °F 30.2 °F 81% 29.94 in 10.0 mi North 13.8 mph 20.7 mph N/A   Overcast
8:18 AM 35.6 °F 28.6 °F 30.2 °F 81% 29.93 in 10.0 mi North 9.2 mph - N/A   Overcast
8:43 AM 35.6 °F 26.6 °F 30.2 °F 81% 29.92 in 10.0 mi North 13.8 mph - N/A   Overcast
8:56 AM 36.0 °F 29.0 °F 30.0 °F 79% 29.93 in 10.0 mi North 9.2 mph 18.4 mph N/A   Overcast
9:29 AM 35.6 °F 25.9 °F 26.6 °F 70% 29.92 in 10.0 mi North 16.1 mph 21.9 mph N/A   Overcast
9:56 AM 35.1 °F 26.4 °F 27.0 °F 72% 29.93 in 10.0 mi North 12.7 mph 21.9 mph N/A   Overcast
10:56 AM 35.1 °F 27.4 °F 26.1 °F 70% 29.92 in 10.0 mi NNE 10.4 mph 17.3 mph N/A   Overcast
11:56 AM 35.1 °F 27.4 °F 27.0 °F 72% 29.91 in 10.0 mi North 10.4 mph - N/A   Overcast
12:56 PM 34.0 °F 25.5 °F 27.0 °F 75% 29.90 in 3.0 mi North 11.5 mph - 0.00 in Snow Light Snow
1:04 PM 33.8 °F 27.0 °F 26.6 °F 75% 29.89 in 2.0 mi North 8.1 mph - 0.00 in Snow Light Snow
1:15 PM 33.8 °F 25.8 °F 26.6 °F 75% 29.89 in 1.8 mi North 10.4 mph - 0.00 in Snow Light Snow
1:48 PM 33.8 °F 28.6 °F 28.4 °F 81% 29.88 in 2.5 mi North 5.8 mph - 0.00 in Snow Light Snow
1:56 PM 34.0 °F 29.8 °F 28.9 °F 82% 29.87 in 4.0 mi North 4.6 mph - 0.00 in Snow Light Snow
2:15 PM 35.6 °F 26.6 °F 26.6 °F 70% 29.86 in 9.0 mi North 13.8 mph - 0.00 in   Overcast
2:56 PM 36.0 °F 28.5 °F 26.1 °F 67% 29.85 in 10.0 mi North 10.4 mph - 0.00 in   Overcast
3:56 PM 36.0 °F 31.1 °F 23.0 °F 59% 29.83 in 10.0 mi North 5.8 mph - N/A   Overcast
4:56 PM 36.0 °F 30.3 °F 23.0 °F 59% 29.82 in 10.0 mi North 6.9 mph - N/A   Overcast
5:56 PM 36.0 °F 30.3 °F 21.9 °F 57% 29.82 in 10.0 mi North 6.9 mph - N/A   Overcast
6:56 PM 36.0 °F 31.1 °F 21.9 °F 57% 29.82 in 10.0 mi North 5.8 mph - N/A   Overcast
7:56 PM 35.1 °F 26.9 °F 19.9 °F 54% 29.81 in 10.0 mi NNW 11.5 mph - N/A   Overcast
8:56 PM 33.1 °F 23.0 °F 21.9 °F 64% 29.79 in 9.0 mi North 15.0 mph 20.7 mph 0.00 in Snow Light Snow
9:56 PM 30.9 °F 21.7 °F 24.1 °F 76% 29.77 in 5.0 mi NNW 11.5 mph - 0.00 in Snow Light Snow
10:56 PM 30.9 °F 20.2 °F 24.1 °F 76% 29.72 in 6.0 mi North 15.0 mph 21.9 mph 0.00 in Snow Light Snow
11:35 PM 30.2 °F 19.8 °F 23.0 °F 75% 29.69 in 4.0 mi North 13.8 mph - 0.00 in Snow Light Snow
11:56 PM 30.0 °F 20.0 °F 23.0 °F 75% 29.70 in 4.0 mi North 12.7 mph 20.7 mph 0.00 in Snow Light Snow